TimeHAST,TemperatureF,Dew PointF,Humidity,Sea Level PressureIn,VisibilityMPH,Wind Direction,Wind SpeedMPH,Gust SpeedMPH,PrecipitationIn,Events,Conditions,WindDirDegrees,DateUTC
12:16 AM,33.8,-14.8,12,29.30,10.0,NW,12.7,-,N/A,,Overcast,320,2013-01-13 10:16:00
12:36 AM,33.8,-14.8,12,29.31,5.0,NNW,12.7,19.6,N/A,,Overcast,330,2013-01-13 10:36:00
12:56 AM,33.8,-14.8,12,29.33,3.0,NNW,16.1,-,N/A,,Mostly Cloudy,330,2013-01-13 10:56:00
1:16 AM,33.8,-14.8,12,29.33,5.0,NNW,16.1,-,N/A,,Overcast,330,2013-01-13 11:16:00
1:36 AM,33.8,-14.8,12,29.34,10.0,NNW,10.4,-,N/A,,Overcast,330,2013-01-13 11:36:00
1:56 AM,33.8,-14.8,12,29.35,10.0,NNW,15.0,-,N/A,,Mostly Cloudy,330,2013-01-13 11:56:00
2:16 AM,33.8,-14.8,12,29.35,10.0,North,5.8,-,N/A,,Overcast,10,2013-01-13 12:16:00
2:36 AM,33.8,-14.8,12,29.35,10.0,NW,13.8,-,N/A,,Overcast,320,2013-01-13 12:36:00
2:56 AM,33.8,-14.8,12,29.35,10.0,WNW,8.1,-,N/A,,Overcast,300,2013-01-13 12:56:00
3:16 AM,33.8,-14.8,12,29.35,9.0,NNW,6.9,-,N/A,,Overcast,340,2013-01-13 13:16:00
3:36 AM,32.0,-16.6,12,29.36,10.0,NW,5.8,-,N/A,,Mostly Cloudy,320,2013-01-13 13:36:00
3:56 AM,32.0,-16.6,12,29.36,10.0,WNW,3.5,-,N/A,,Mostly Cloudy,300,2013-01-13 13:56:00
4:16 AM,32.0,-16.6,12,29.36,10.0,Calm,Calm,-,N/A,,Overcast,0,2013-01-13 14:16:00
4:36 AM,33.8,-14.8,12,29.36,10.0,SW,8.1,-,N/A,,Scattered Clouds,230,2013-01-13 14:36:00
4:56 AM,33.8,-14.8,12,29.37,10.0,WSW,6.9,-,N/A,,Clear,240,2013-01-13 14:56:00
5:16 AM,33.8,-14.8,12,29.37,10.0,East,4.6,-,N/A,,Scattered Clouds,90,2013-01-13 15:16:00
5:36 AM,33.8,-14.8,12,29.38,10.0,SE,3.5,-,N/A,,Overcast,140,2013-01-13 15:36:00
5:56 AM,33.8,-14.8,12,29.38,10.0,ENE,9.2,-,N/A,,Overcast,60,2013-01-13 15:56:00
6:16 AM,33.8,-14.8,12,29.37,10.0,NE,8.1,-,N/A,,Mostly Cloudy,40,2013-01-13 16:16:00
6:36 AM,33.8,-14.8,12,29.37,10.0,North,11.5,-,N/A,,Overcast,10,2013-01-13 16:36:00
6:56 AM,35.6,-9999,N/A,29.37,10.0,NNE,4.6,-,N/A,,Overcast,30,2013-01-13 16:56:00
7:16 AM,35.6,-9999,N/A,29.38,10.0,NNE,8.1,-,N/A,,Overcast,20,2013-01-13 17:16:00
7:36 AM,35.6,-9999,N/A,29.39,10.0,ENE,17.3,21.9,N/A,,Overcast,70,2013-01-13 17:36:00
7:56 AM,33.8,-14.8,12,29.39,10.0,ENE,13.8,17.3,N/A,,Overcast,60,2013-01-13 17:56:00
8:16 AM,33.8,-14.8,12,29.40,8.0,ENE,6.9,-,N/A,,Overcast,70,2013-01-13 18:16:00
8:36 AM,33.8,-14.8,12,29.39,10.0,ENE,10.4,-,N/A,,Mostly Cloudy,70,2013-01-13 18:36:00
8:56 AM,33.8,-14.8,12,29.39,10.0,ENE,15.0,23.0,N/A,,Overcast,70,2013-01-13 18:56:00
9:16 AM,33.8,-14.8,12,29.40,10.0,East,9.2,16.1,N/A,,Overcast,80,2013-01-13 19:16:00
9:36 AM,33.8,-14.8,12,29.41,10.0,ESE,3.5,-,N/A,,Overcast,120,2013-01-13 19:36:00
9:56 AM,33.8,-14.8,12,29.40,10.0,NE,9.2,23.0,N/A,,Mostly Cloudy,40,2013-01-13 19:56:00
10:16 AM,35.6,-14.8,11,29.40,10.0,ENE,11.5,-,N/A,,Overcast,60,2013-01-13 20:16:00
10:36 AM,35.6,-9999,N/A,29.41,10.0,ENE,8.1,-,N/A,,Overcast,60,2013-01-13 20:36:00
10:56 AM,35.6,-14.8,11,29.40,10.0,East,13.8,17.3,N/A,,Overcast,80,2013-01-13 20:56:00
11:16 AM,35.6,-9999,N/A,29.41,4.0,East,18.4,24.2,N/A,,Overcast,90,2013-01-13 21:16:00
11:36 AM,33.8,-14.8,12,29.41,3.0,East,21.9,29.9,N/A,,Overcast,80,2013-01-13 21:36:00
11:56 AM,33.8,-14.8,12,29.41,4.0,East,19.6,-,N/A,,Mostly Cloudy,80,2013-01-13 21:56:00
12:16 PM,33.8,-14.8,12,29.41,5.0,ENE,17.3,23.0,N/A,,Mostly Cloudy,70,2013-01-13 22:16:00
12:36 PM,35.6,-14.8,11,29.41,7.0,ENE,17.3,-,N/A,,Overcast,70,2013-01-13 22:36:00
12:56 PM,35.6,-13.0,12,29.40,10.0,East,18.4,24.2,N/A,,Overcast,80,2013-01-13 22:56:00
1:16 PM,35.6,-13.0,12,29.40,2.5,ENE,16.1,26.5,N/A,,Overcast,60,2013-01-13 23:16:00
1:36 PM,35.6,-13.0,12,29.39,10.0,ENE,13.8,21.9,N/A,,Overcast,70,2013-01-13 23:36:00
2:16 PM,35.6,-13.0,12,29.38,1.5,East,17.3,-,N/A,,Unknown,90,2013-01-14 00:16:00
2:36 PM,35.6,-14.8,11,29.38,3.0,East,13.8,-,N/A,,Overcast,80,2013-01-14 00:36:00
2:56 PM,35.6,-13.0,12,29.37,10.0,East,13.8,-,N/A,,Overcast,90,2013-01-14 00:56:00
3:16 PM,35.6,-13.0,12,29.37,10.0,ENE,18.4,25.3,N/A,,Overcast,70,2013-01-14 01:16:00
3:36 PM,37.4,-13.0,11,29.37,10.0,ENE,17.3,21.9,N/A,,Overcast,70,2013-01-14 01:36:00
3:56 PM,35.6,-13.0,12,29.38,10.0,East,16.1,23.0,N/A,,Overcast,80,2013-01-14 01:56:00
4:16 PM,35.6,-13.0,12,29.38,10.0,ENE,17.3,24.2,N/A,,Overcast,60,2013-01-14 02:16:00
4:36 PM,35.6,-13.0,12,29.39,8.0,ENE,17.3,23.0,N/A,,Overcast,70,2013-01-14 02:36:00
4:56 PM,35.6,-13.0,12,29.39,10.0,East,20.7,26.5,N/A,,Overcast,80,2013-01-14 02:56:00
5:16 PM,35.6,-13.0,12,29.40,10.0,East,19.6,26.5,N/A,,Overcast,80,2013-01-14 03:16:00
5:36 PM,35.6,-13.0,12,29.40,10.0,ENE,18.4,25.3,N/A,,Mostly Cloudy,70,2013-01-14 03:36:00
5:56 PM,33.8,-9999,N/A,29.41,1.5,ENE,16.1,-,N/A,,Overcast,70,2013-01-14 03:56:00
6:16 PM,33.8,-14.8,12,29.41,10.0,ENE,18.4,23.0,N/A,,Overcast,60,2013-01-14 04:16:00
6:36 PM,35.6,-14.8,11,29.40,10.0,ENE,24.2,28.8,N/A,,Overcast,70,2013-01-14 04:36:00
6:56 PM,35.6,-9999,N/A,29.41,10.0,ENE,18.4,25.3,N/A,,Overcast,70,2013-01-14 04:56:00
7:36 PM,35.6,-14.8,11,29.42,9.0,East,20.7,-,N/A,,Mostly Cloudy,80,2013-01-14 05:36:00
7:56 PM,33.8,-14.8,12,29.42,10.0,ENE,17.3,25.3,N/A,,Mostly Cloudy,70,2013-01-14 05:56:00
8:16 PM,33.8,-14.8,12,29.43,8.0,East,21.9,-,N/A,,Mostly Cloudy,90,2013-01-14 06:16:00
8:36 PM,33.8,-14.8,12,29.43,8.0,East,23.0,26.5,N/A,,Mostly Cloudy,80,2013-01-14 06:36:00
9:16 PM,33.8,-14.8,12,29.43,10.0,ENE,17.3,24.2,N/A,,Overcast,70,2013-01-14 07:16:00
9:36 PM,33.8,-14.8,12,29.44,3.0,East,20.7,26.5,N/A,,Overcast,80,2013-01-14 07:36:00
9:56 PM,33.8,-14.8,12,29.43,7.0,East,19.6,25.3,N/A,,Overcast,80,2013-01-14 07:56:00
10:16 PM,33.8,-14.8,12,29.44,7.0,ENE,20.7,24.2,N/A,,Overcast,70,2013-01-14 08:16:00
10:36 PM,35.6,-14.8,11,29.44,10.0,ENE,19.6,26.5,N/A,,Overcast,70,2013-01-14 08:36:00
10:56 PM,33.8,-14.8,12,29.45,4.0,East,21.9,26.5,N/A,,Overcast,80,2013-01-14 08:56:00
11:16 PM,33.8,-14.8,12,29.45,5.0,East,17.3,-,N/A,,Overcast,80,2013-01-14 09:16:00
11:36 PM,33.8,-14.8,12,29.46,7.0,ENE,17.3,-,N/A,,Overcast,70,2013-01-14 09:36:00
11:56 PM,33.8,-14.8,12,29.46,10.0,East,16.1,-,N/A,,Overcast,80,2013-01-14 09:56:00